Flag for Canada Weather past 2 weeks in Wood Buffalo, Alberta, Canada

Now
26 °F

Chilly.


Feels Like: 16 °F
Forecast: -2 / 31 °F
Wind: 9 mph from Southeast

Location: Fort McMurray CS

Current Time: Feb 28, 2015 at 5:08:31 PM

Latest Report: Feb 28, 2015 at 4:00 PM


Visibility: N/A

Pressure: 30.19 "Hg

Humidity: 73%

Dew point: 18 °F

Location of Wood BuffaloLocation

Historic Weather in Wood Buffalo — Graph

°F

Wood Buffalo temperature yesterday

Maximum temperature yesterday: 15 °F (at 5:00 PM)
Minimum temperature yesterday: 4 °F (at 10:00 AM)
Average temperature yesterday: 10 °F

Past Weeks' High & Low Weather Summary

 TemperatureHumidityPressure
High37 °F (Feb 22, 4:00 PM)98% (Feb 28, 8:00 AM)30.87 "Hg (Feb 28, 8:00 AM)
Low-26 °F (Feb 26, 3:00 AM)40% (Feb 21, 3:00 PM)29.82 "Hg (Feb 19, 2:00 PM)
Average7 °F76%30.36 "Hg
* Reported Feb 13 3:00 PM — Feb 28 3:00 PM, Wood Buffalo, Weather by CustomWeather, © 2015

Note: Actual official high and low records may vary slightly from our data, if they occured in-between our weather recording intervals... More about our weather records

Advertising

Wood Buffalo weather history for previous 24 hours

 ConditionsComfort  
Time TempWeatherWind HumidityBarometerVisibility
3:00 PM
Sat, Feb 28
27 °FChilly.10 mph67%30.17 "HgN/A
2:00 PM25 °FCold.6 mph77%30.17 "HgN/A
1:00 PM25 °FChilly.9 mph73%30.16 "HgN/A
12:00 PM24 °FCold.10 mph76%30.16 "HgN/A
11:00 AM23 °FCold.12 mph78%30.14 "HgN/A
10:00 AM21 °FCold.8 mph89%30.13 "HgN/A
9:00 AM20 °FCold.8 mph87%30.12 "HgN/A
8:00 AM19 °FCold.8 mph98%30.12 "HgN/A
7:00 AM19 °FCold.9 mph90%30.12 "HgN/A
6:00 AM18 °FCold.10 mph88%30.11 "HgN/A
5:00 AM17 °FCold.10 mph91%30.12 "HgN/A
4:00 AM16 °FCold.7 mph91%30.14 "HgN/A
3:00 AM16 °FCold.8 mph87%30.15 "HgN/A
2:00 AM15 °FCold.8 mph79%30.16 "HgN/A
1:00 AM15 °FCold.8 mph75%30.17 "HgN/A
12:00 AM15 °FCold.9 mph74%30.18 "HgN/A
11:00 PM
Fri, Feb 27
15 °FCold.6 mph73%30.19 "HgN/A
10:00 PM15 °FCold.7 mph75%30.20 "HgN/A
9:00 PM14 °FCold.7 mph76%30.22 "HgN/A
8:00 PM10 °FCold.2 mph78%30.24 "HgN/A
7:00 PM5 °FFrigid.5 mph80%30.26 "HgN/A
6:00 PM10 °FCold.6 mph71%30.27 "HgN/A
5:00 PM15 °FCold.6 mph65%30.27 "HgN/A
Weather by CustomWeather, © 2015

See weather overviewHow to use our weather pages